Regional Weather Roundup
Issued by NWS

Home | Current Version | Previous Version | Text Only | Print | Product List | Glossary Off
Versions: 1 2 3 4 5 6 7 8 9 10 11 12 13 14 15 16 17 18 19 20 21 22 23 24 25 26 27 28 29 30 31 32 33 34 35 36 37 38 39 40 41 42 43 44 45 46 47 48 49 50

711
ASUS43 KLOT 271303
RWRIL

ILLINOIS REGIONAL WEATHER ROUNDUP
NATIONAL WEATHER SERVICE CHICAGO/ROMEOVILLE IL
800 AM CDT FRI MAY 27 2016

NOTE: "FAIR" INDICATES FEW OR NO CLOUDS BELOW 12,000 FEET WITH NO
SIGNIFICANT WEATHER AND/OR OBSTRUCTIONS TO VISIBILITY.

* THESE STATIONS ARE NOT UNDER NWS QUALITY CONTROL. THEY ALSO MAY NOT
  REPORT WEATHER SUCH AS PRECIPITATION OR FOG.

ILZ001-002-007-009-015-016-024-271400-
NORTHWEST ILLINOIS

CITY           SKY/WX    TMP DP  RH WIND       PRES   REMARKS
MOLINE         CLOUDY    68  63  84 SE8       29.84R
STERLING*      LGT RAIN  67  62  84 SE6       29.88R
$$

ILZ003-004-008-010-011-017-018-271400-
NORTH CENTRAL ILLINOIS

CITY           SKY/WX    TMP DP  RH WIND       PRES   REMARKS
ROCKFORD       LGT RAIN  70  64  81 S7        29.90R
FREEPORT*      CLOUDY    65  61  85 CALM      29.90R
ROCHELLE*      CLOUDY    69  66  92 SE12      29.89S
DE KALB*       CLOUDY    68  66  94 S14       29.90R
$$

ILZ005-006-012>014-019>023-271400-
NORTHEAST ILLINOIS

CITY           SKY/WX    TMP DP  RH WIND       PRES   REMARKS
CHICAGO-OHARE  CLOUDY    71  65  81 S10       29.89R
CHICAGO-MIDWAY CLOUDY    71  63  75 S13       29.90R
AURORA         CLOUDY    69  65  86 S8        29.90R
LANSING*       PTSUNNY   69  64  82 S13       29.92S
WAUKEGAN       CLOUDY    72  66  81 S7        29.87S
DUPAGE AIRPORT CLOUDY    69  63  81 S14       29.89R
WHEELING       CLOUDY    70  64  81 S9        29.89S
MORRIS*        CLOUDY    71  65  80 S9        29.90R
NORTHERLY ISL    N/A     70  62  76 S14         N/A
NORTHERLY ISL    N/A     70  62  76 S14         N/A
$$

LMZ740>746-271400-
SOUTHERN LAKE MICHIGAN

STATION/POSITION SKY/WX   TEMP    WIND        PRES    VSBY  WAVE
                          AIR SEA DIR/SP/G                  HT/PER
                          (F)     (DEG/KT/KT) (MB)    (MI)  (FT/S)
SOUTHERN BUOY              54 50  150/  8/ 10 1011.9          1/11
WILMETTE HARBOR            60 57  180/  8/  8   N/A           1
HARRISON CRIB              68     180/ 13/ 13   N/A
BURNHAM HARBOR             71     210/  9/ 14   N/A
CALUMET HARBOR             68     160/  7/  9 1012.0R
MICHIGAN CITY              67     140/  9/ 11   N/A
MICHIGAN CITY 6N           63 58  170/  6/ 10   N/A           1
ST. JOSEPH                 64 61  150/  8/ 10   N/A           1
$$

ILZ025>027-034>036-040-047-049-050-058-095>099-271400-
WEST-CENTRAL ILLINOIS

CITY           SKY/WX    TMP DP  RH WIND       PRES   REMARKS
QUINCY         LGT RAIN  68  65  90 S12G22    29.83F
MACOMB*        LGT RAIN  66  65  96 S14       29.87S
PITTSFIELD*    CLOUDY    68  67  95 S10       29.86S
$$

ILZ028>032-037-038-041>044-048-051>054-059>061-271400-
CENTRAL ILLINOIS

CITY           SKY/WX    TMP DP  RH WIND       PRES   REMARKS
BLOOMINGTON    PTSUNNY   69  68  97 S12       29.93F
DECATUR          N/A     70  64  81 SE12      29.93F
PEORIA         CLOUDY    70  64  81 S10       29.89S
LINCOLN*       CLOUDY    70  67  90 S9        29.90F
SPRINGFIELD    CLOUDY    70  65  84 S13       29.90S
TAYLORVILLE    NOT AVBL
$$

ILZ033-039-045-046-055>057-062-063-271400-
EAST-CENTRAL ILLINOIS

CITY           SKY/WX    TMP DP  RH WIND       PRES   REMARKS
CHAMPAIGN      CLOUDY    69  64  84 S13       29.95S
MATTOON        CLOUDY    67  63  87 S10       29.97R
$$

ILZ079-100>102-271400-
SOUTHWEST ILLINOIS

CITY           SKY/WX    TMP DP  RH WIND       PRES   REMARKS
BELLEVILLE     LGT RAIN  66  66 100 E8        29.91R
CAHOKIA*       LGT RAIN  68  66  93 SE9       29.90S
SPARTA*        HVY RAIN  65  64  97 SE7       29.95R
$$

ILZ064>066-069>071-074>076-080>082-084>086-088>090-092>094-271400-
SOUTH-CENTRAL ILLINOIS

CITY           SKY/WX    TMP DP  RH WIND       PRES   REMARKS
CARBONDALE     TSTM      66  64  93 S6        29.97R FOG
CAIRO*         CLOUDY    67  66  96 CALM      29.95R
EFFINGHAM*     CLOUDY    67  66  97 E6        29.98R
MARION         CLOUDY    68  66  94 SE6       29.96S
MT. VERNON     CLOUDY    64  61  88 E5        29.96F
SALEM*         LGT RAIN  67  64  93 E6        29.95S
$$

ILZ067-068-072-073-078-083-087-091-271400-
SOUTHEAST ILLINOIS

CITY           SKY/WX    TMP DP  RH WIND       PRES   REMARKS
LAWRENCEVILLE  PTSUNNY   69  65  86 S8        29.98R
FLORA*         DRIZZLE   67  65  93 SE9       29.97S
HARRISBURG*    CLOUDY    67  66  95 CALM      29.97R
ROBINSON*      PTSUNNY   67  64  90 S9        29.99R
CARMI*         CLOUDY    68  66  92 SW3       29.97R
$$

ABBREVIATIONS USED IN REMARKS
   TC - TEMPERATURE IN CELSIUS
  WCI - WIND CHILL INDEX
   HX - HEAT INDEX
  VSB - VISIBILITY
$$





USA.gov is the U.S. government's official web portal to all federal, state and local government web resources and services.